KOMPSAT-7

Last updated on Thu Jan 01 2026 00:02:05 GMT+0000 (Coordinated Universal Time)

1 66820U 25279A 25365.61433796 .00005044 00000+0 40037-3 0 9996 2 66820 97.6466 311.1608 0010259 193.4210 166.6743 15.00898267 4484
UTC large
Height (km)
Speed (km/s)
/
Latitude / Longitude
Inclination (degrees)
Orbital Period (minutes)
Azimuth
Elevation
Range (km)
Doppler Factor

Next 0 passes for location: London (51.5072 / 0.1276)

Sorry there are no passes over London.